Regional Weather Roundup
Issued by NWS

Home | Current Version | Previous Version | Graphics & Text | Print | Product List | Glossary On
Versions: 1 2 3 4 5 6 7 8 9 10 11 12 13 14 15 16 17 18 19 20 21 22 23 24 25 26 27 28 29 30 31 32 33 34 35 36 37 38 39 40 41 42 43 44 45 46 47 48 49 50
000
ASUS43 KTOP 210259
RWRKS

WEATHER ROUNDUP FOR KANSAS
NATIONAL WEATHER SERVICE GOODLAND KS
900 PM CST FRI JAN 20 2017

NOTE:  "FAIR" INDICATES FEW OR NO CLOUDS BELOW 12,000 FEET WITH NO
SIGNIFICANT WEATHER AND/OR OBSTRUCTIONS TO VISIBILITY.

KSZ001>006-013>018-027>032-041>047-210400-
NORTHWEST KANSAS

CITY           SKY/WX    TMP DP  RH WIND       PRES   REMARKS
GOODLAND       PTCLDY    36  34  92 W13       29.44R WCI  27
HAYS           CLOUDY    41  38  89 W6        29.44R
HILL CITY      CLOUDY    39  36  89 W7        29.43S
RUSSELL        CLOUDY    43  39  86 W6        29.41R
$$

KSZ061>065-074>080-084>089-210400-
SOUTHWEST KANSAS

CITY           SKY/WX    TMP DP  RH WIND       PRES   REMARKS
DODGE CITY     CLEAR     37  33  85 W14       29.49R WCI  28
ELKHART          N/A     34  24  67 NW2         N/A
GARDEN CITY    CLEAR     32  30  92 W8        29.50R
GREAT BEND     LGT RAIN  43  40  89 NW9       29.44S
LIBERAL        CLEAR     36  28  75 CALM      29.49S
$$

KSZ066>073-081>083-090>101-210400-
SOUTHEAST KANSAS

CITY           SKY/WX    TMP DP  RH WIND       PRES   REMARKS
CHANUTE        CLEAR     40  36  86 W5        29.48R
COFFEYVILLE    CLEAR     50  39  66 S8        29.47F
HUTCHINSON     FOG       39  38  96 S3        29.43R VSB 1/4
MEDICINE LODGE   N/A     34  33  96 W6        29.47R
NEWTON         FOG       37  36  96 S6        29.44R VSB 1/2
PARSONS        PTCLDY    50  40  68 S5        29.47F
WICHITA INTL   PTCLDY    35  34  96 CALM      29.43F
WICHITA JABRA  FOG       35  35 100 CALM      29.43S VSB 1
WINFIELD       CLEAR     42  39  89 E5        29.45F
$$

KSZ007>012-019>026-033>040-048>060-102>105-210400-
NORTHEAST KANSAS

CITY           SKY/WX    TMP DP  RH WIND       PRES   REMARKS
CONCORDIA      FOG       42  42 100 N8        29.40F VSB 1/4
EMPORIA        CLOUDY    39  38  96 NW8       29.44S FOG
LAWRENCE       CLEAR     43  43 100 E6        29.45F FOG
MANHATTAN      CLOUDY    45  44  97 SW5       29.42F
OLATHE IND     PTCLDY    46  44  93 SE8       29.46F
OLATHE EXE     PTCLDY    43  43 100 SE5       29.46F
SALINA         MOCLDY    43  39  86 SW6       29.43S FOG
TOPEKA BILLARD FOG       45  41  86 CALM      29.45S VSB 1/2
TOPEKA FORBES  CLEAR     45  43  93 S3        29.45S FOG
$$




USA.gov is the U.S. government's official web portal to all federal, state and local government web resources and services.